Regional Weather Roundup
Issued by NWS Huntsville, AL

Home | Current Version | Previous Version | Text Only | Print | Product List | Glossary On
Versions: 1 2 3 4 5 6 7 8 9 10 11 12 13 14 15 16 17 18 19 20 21 22 23 24 25 26 27 28 29 30 31 32 33 34 35 36 37 38 39 40 41 42 43 44 45 46 47 48 49 50
000
ASUS44 KHUN 211924
RWRHUN

WEATHER ROUNDUP FOR THE TENNESSEE VALLEY
NATIONAL WEATHER SERVICE HUNTSVILLE AL
200 PM CDT THU AUG 21 2014

ALZ001>004-212000-
NORTHWEST ALABAMA

CITY           SKY/WX    TMP DP  RH WIND       PRES   REMARKS
SHOALS AIRPORT MOSUNNY   92  73  53 VRB6      30.14F HX 100
$$

ALZ005>007-016-212000-
NORTH CENTRAL ALABAMA

CITY           SKY/WX    TMP DP  RH WIND       PRES   REMARKS
DECATUR AP     SUNNY     94  70  45 W12       30.14F HX 100
HUNTSVILLE AP  PTSUNNY   93  71  48 VRB3      30.13F HX 100
MERIDIANVILLE  MOSUNNY   91  63  38 SW6       30.13F HX  92
REDSTONE ARSN  MOSUNNY   91  70  49 CALM      30.14F HX  97
VINEMONT AP    FAIR      92  70  48 W8        30.16F HX  98
$$

ALZ008>010-212000-
NORTHEAST ALABAMA

CITY           SKY/WX    TMP DP  RH WIND       PRES   REMARKS
ALBERTVILLE    MOSUNNY   90  77  66 NW3       30.13F HX 102
CROSSVILLE       N/A     88 N/A N/A CALM        N/A
FORT PAYNE     MOSUNNY   88  68  51 NW9       30.13F HX  91
SCOTTSBORO AP  SUNNY     90  73  58 W3        30.13F HX  98
SCOTTSBORO HCN   N/A     88 N/A N/A MISG        N/A
VALLEY HEAD      N/A     88 N/A N/A MISG        N/A
$$

TNZ076-096-097-212000-
SOUTHEASTERN MIDDLE TENNESSEE

CITY           SKY/WX    TMP DP  RH WIND       PRES   REMARKS
FAYETTEVILLE   MOSUNNY   86  72  62 SE5       30.14F HX  92
TULLAHOMA      MOSUNNY   91  70  49 NW6       30.15F HX  97
WINCHESTER     SUNNY     90  73  58 VRB5      30.14F HX  98
$$

...SURROUNDING SITES...

CITY           SKY/WX    TMP DP  RH WIND       PRES   REMARKS
ATLANTA        MOSUNNY   92  71  50 N16       30.14F HX  98
ANNISTON       MOSUNNY   94  68  42 NW8       30.12F HX  98
BIRMINGHAM     MOSUNNY   93  70  46 W7        30.15F HX  99
CHATTANOOGA    PTSUNNY   92  69  47 W6        30.14F HX  97
CORINTH        PTSUNNY   91  73  55 VRB6G12   30.10F HX 100
DALTON         MOSUNNY   90  72  55 N5        30.13F HX  96
GADSDEN        MOSUNNY   90  72  55 SE10      30.11F HX  96
GOLDEN TRNGL   PTSUNNY   97  72  44 NW9       30.12F HX 105
HALEYVILLE     FAIR      91  72  53 W5        30.18F HX  98
JACKSON TN     MOSUNNY   91  73  55 SW8       30.10F HX  99
LEWISBURG      FAIR      93  70  47 W7        30.12F HX  98
MEMPHIS        PTSUNNY   94  71  47 SW12G17   30.10F HX 101
MURFREESBORO   FAIR      91  67  45 W8        30.11F HX  94
NASHVILLE      MOSUNNY   92  71  50 W6        30.11F HX  98
OXFORD MS      PTSUNNY   90  72  55 SW6       30.13F HX  96
ROME           HVY RAIN  76  68  76 S17G30    30.14S VSB 3/4
SAVANNAH       PTSUNNY   90  75  62 SW10      30.11F HX 100
TUPELO         SUNNY     93  70  46 VRB6      30.11F HX  99
TUSCALOOSA     PTSUNNY   93  70  46 N5        30.11F HX  99
$$

...GULF COAST WEATHER...

CITY           SKY/WX    TMP DP  RH WIND       PRES   REMARKS
GULFPORT       PTSUNNY   93  73  52 S9        30.11F HX 102
PASCAGOULA     MOSUNNY   93  75  55 SW6       30.11F HX 104
MOBILE         PTSUNNY   92  73  53 VRB3      30.13F HX 100
GULF SHORES    CLEAR     93  71  49 W7        30.11F HX 100
PENSACOLA      MOSUNNY   91  77  63 S15       30.11F HX 104
DESTIN         SUNNY     91  79  67 SW7       30.11F HX 107
PANAMA CITY    SUNNY     90  80  71 W12       30.11F HX 108
APPALACHICOLA  SUNNY     92  76  59 S13       30.10F HX 104
$$



USA.gov is the U.S. government's official web portal to all federal, state and local government web resources and services.